Tracking 18032 objects as of 25-March-2017
HD Live streaming from Space Station
objects crossing your sky now

GLOBALSTAR M006

Track GLOBALSTAR M006 now!
10-day predictions
GLOBALSTAR M006 is classified as:


NORAD ID: 25307
Int'l Code: 1998-023B
Perigee: 1,877.8 km
Apogee: 1,884.3 km
Inclination: 52.0 °
Period: 124.3 minutes
Semi major axis: 8252 km
RCS: 2.7065 m2 (large)
Launch date: April 24, 1998
Source: Globalstar (GLOB)
Launch site: AIR FORCE EASTERN TEST RANGE (AFETR)
Your satellite tracking list
Your tracking list is empty





NASA's NSSDC Master Catalog

Two Line Element Set (TLE):
1 25307U 98023B   17082.56852523 -.00000080 +00000-0 -85346-4 0  9993
2 25307 051.9925 147.4250 0003885 084.5602 016.1778 11.58137234868391
Source of the keplerian elements: AFSPC